Location: Moondance
(40.1328°N, 106.5113°W)
Time: 03:18:07
(UTC-07:00)

ISS - Visible Passes

Search period start: 18 November 2018 00:00
Search period end: 28 November 2018 00:00
Orbit: 402 x 408 km, 51.6° (Epoch: 18 November)

Date Brightness Start Highest point End Pass type
(mag) Time Alt. Az. Time Alt. Az. Time Alt. Az.
21 Nov -0.6 19:13:38 10° SW 19:13:39 10° SW 19:13:39 10° SW visible
22 Nov -2.4 18:21:55 10° SSW 18:24:02 25° SSE 18:24:02 25° SSE visible
23 Nov -1.8 17:30:50 10° SSE 17:32:45 15° SE 17:34:20 11° E visible
23 Nov -1.3 19:05:43 10° WSW 19:07:01 22° WSW 19:07:01 22° WSW visible
24 Nov -4.0 18:13:29 10° SW 18:16:43 75° SE 18:17:13 58° ENE visible
25 Nov -3.0 17:21:35 10° SSW 17:24:35 36° SE 17:27:19 12° ENE visible
25 Nov -1.5 18:58:15 10° W 19:00:00 22° WNW 19:00:00 22° WNW visible
26 Nov -3.1 18:05:39 10° WSW 18:08:47 45° NNW 18:10:00 29° NNE visible
27 Nov -3.8 17:13:16 10° SW 17:16:31 85° NW 17:19:47 10° NE visible
27 Nov -1.3 18:51:07 10° WNW 18:52:37 16° NW 18:52:37 16° NW visible
